TimeCST,TemperatureF,Dew PointF,Humidity,Sea Level PressureIn,VisibilityMPH,Wind Direction,Wind SpeedMPH,Gust SpeedMPH,PrecipitationIn,Events,Conditions,WindDirDegrees,DateUTC
12:15 AM,19.4,17.6,93,30.09,5.0,North,4.6,-,N/A,,Clear,10,2012-12-14 06:15:00
12:35 AM,19.4,15.8,86,30.08,5.0,North,5.8,-,N/A,,Clear,360,2012-12-14 06:35:00
12:55 AM,19.4,17.6,93,30.08,5.0,NNE,5.8,-,N/A,,Clear,30,2012-12-14 06:55:00
1:15 AM,19.4,17.6,93,30.08,5.0,NE,4.6,-,N/A,,Clear,40,2012-12-14 07:15:00
1:35 AM,19.4,15.8,86,30.08,5.0,NE,4.6,-,N/A,,Clear,50,2012-12-14 07:35:00
1:55 AM,19.4,15.8,86,30.08,5.0,NE,4.6,-,N/A,,Clear,50,2012-12-14 07:55:00
2:15 AM,19.4,15.8,86,30.09,5.0,NE,3.5,-,N/A,,Clear,50,2012-12-14 08:15:00
2:35 AM,19.4,15.8,86,30.08,5.0,NE,4.6,-,N/A,,Clear,40,2012-12-14 08:35:00
2:55 AM,19.4,15.8,86,30.07,5.0,NE,5.8,-,N/A,,Clear,50,2012-12-14 08:55:00
3:15 AM,19.4,15.8,86,30.07,5.0,ENE,5.8,-,N/A,,Clear,60,2012-12-14 09:15:00
3:35 AM,19.4,17.6,93,30.06,5.0,NE,6.9,-,N/A,,Clear,50,2012-12-14 09:35:00
3:55 AM,19.4,15.8,86,30.05,5.0,NE,3.5,-,N/A,,Clear,50,2012-12-14 09:55:00
4:15 AM,19.4,15.8,86,30.05,5.0,Calm,Calm,-,N/A,,Clear,0,2012-12-14 10:15:00
4:35 AM,19.4,17.6,93,30.05,5.0,ENE,4.6,-,N/A,,Clear,70,2012-12-14 10:35:00
4:55 AM,19.4,15.8,86,30.05,6.0,NE,3.5,-,N/A,,Clear,40,2012-12-14 10:55:00
5:15 AM,17.6,14.0,86,30.04,5.0,NNE,4.6,-,N/A,,Clear,20,2012-12-14 11:15:00
5:35 AM,17.6,15.8,93,30.04,6.0,Calm,Calm,-,N/A,,Clear,0,2012-12-14 11:35:00
5:55 AM,17.6,15.8,93,30.04,6.0,Calm,Calm,-,N/A,Snow,Light Snow,0,2012-12-14 11:55:00
6:15 AM,17.6,15.8,93,30.03,6.0,NE,4.6,-,N/A,,Clear,50,2012-12-14 12:15:00
6:35 AM,17.6,15.8,93,30.03,6.0,ENE,3.5,-,N/A,,Clear,70,2012-12-14 12:35:00
6:55 AM,19.4,15.8,86,30.03,5.0,East,4.6,-,N/A,Snow,Light Snow,80,2012-12-14 12:55:00
7:15 AM,19.4,15.8,86,30.03,6.0,East,4.6,-,N/A,Snow,Light Snow,100,2012-12-14 13:15:00
7:35 AM,21.2,17.6,86,30.02,6.0,SE,4.6,-,N/A,,Clear,130,2012-12-14 13:35:00
7:55 AM,24.8,21.2,86,30.01,7.0,ESE,9.2,-,N/A,,Clear,120,2012-12-14 13:55:00
8:15 AM,26.6,21.2,80,30.01,8.0,SE,9.2,-,N/A,,Clear,130,2012-12-14 14:15:00
8:35 AM,28.4,23.0,80,30.01,9.0,SE,10.4,-,N/A,,Clear,130,2012-12-14 14:35:00
8:55 AM,30.2,23.0,75,30.00,9.0,SE,11.5,-,N/A,,Clear,130,2012-12-14 14:55:00
9:15 AM,32.0,24.8,75,30.00,10.0,SE,12.7,-,N/A,,Clear,130,2012-12-14 15:15:00
9:35 AM,33.8,24.8,70,29.99,10.0,SE,10.4,-,N/A,,Clear,130,2012-12-14 15:35:00
9:55 AM,35.6,24.8,65,29.99,10.0,SE,10.4,-,N/A,,Clear,130,2012-12-14 15:55:00
10:15 AM,39.2,26.6,61,29.99,9.0,SE,10.4,-,N/A,,Clear,130,2012-12-14 16:15:00
10:35 AM,42.8,26.6,53,29.98,10.0,SSE,12.7,-,N/A,,Clear,150,2012-12-14 16:35:00
10:55 AM,44.6,26.6,49,29.97,9.0,SSE,17.3,-,N/A,,Clear,160,2012-12-14 16:55:00
11:15 AM,44.6,26.6,49,29.97,10.0,SSE,18.4,25.3,N/A,,Clear,160,2012-12-14 17:15:00
11:35 AM,46.4,26.6,46,29.95,10.0,SSE,13.8,19.6,N/A,,Clear,160,2012-12-14 17:35:00
11:55 AM,48.2,26.6,43,29.94,10.0,SSE,16.1,-,N/A,,Clear,150,2012-12-14 17:55:00
12:15 PM,48.2,26.6,43,29.92,10.0,SSE,15.0,21.9,N/A,,Clear,150,2012-12-14 18:15:00
12:35 PM,50.0,26.6,40,29.90,10.0,SSE,16.1,-,N/A,,Clear,160,2012-12-14 18:35:00
1:15 PM,50.0,26.6,40,29.87,10.0,SE,15.0,-,N/A,,Clear,140,2012-12-14 19:15:00
1:35 PM,50.0,26.6,40,29.86,10.0,SE,15.0,24.2,N/A,,Clear,140,2012-12-14 19:35:00
1:55 PM,50.0,28.4,43,29.85,10.0,SE,13.8,24.2,N/A,,Clear,140,2012-12-14 19:55:00
2:15 PM,51.8,28.4,41,29.84,9.0,SE,13.8,23.0,N/A,,Clear,140,2012-12-14 20:15:00
2:35 PM,51.8,28.4,41,29.84,10.0,SSE,21.9,-,N/A,,Clear,150,2012-12-14 20:35:00
2:55 PM,51.8,28.4,41,29.83,10.0,SSE,18.4,26.5,N/A,,Clear,150,2012-12-14 20:55:00
3:15 PM,50.0,28.4,43,29.82,10.0,SSE,17.3,24.2,N/A,,Clear,150,2012-12-14 21:15:00
3:35 PM,50.0,28.4,43,29.82,10.0,SSE,15.0,24.2,N/A,,Clear,150,2012-12-14 21:35:00
4:15 PM,46.4,28.4,50,29.82,7.0,SSE,15.0,-,N/A,,Clear,150,2012-12-14 22:15:00
4:35 PM,46.4,28.4,50,29.82,10.0,SSE,15.0,-,N/A,,Clear,160,2012-12-14 22:35:00
4:55 PM,44.6,28.4,53,29.82,10.0,SSE,15.0,20.7,N/A,,Clear,150,2012-12-14 22:55:00
5:15 PM,44.6,28.4,53,29.82,10.0,SE,18.4,-,N/A,,Clear,140,2012-12-14 23:15:00
5:35 PM,44.6,30.2,57,29.81,10.0,SE,17.3,-,N/A,,Clear,140,2012-12-14 23:35:00
5:55 PM,44.6,30.2,57,29.82,10.0,SE,15.0,21.9,N/A,,Clear,140,2012-12-14 23:55:00
6:15 PM,44.6,28.4,53,29.81,10.0,SE,16.1,-,N/A,,Clear,140,2012-12-15 00:15:00
6:35 PM,42.8,28.4,57,29.80,10.0,SE,15.0,21.9,N/A,,Clear,130,2012-12-15 00:35:00
6:55 PM,42.8,30.2,61,29.80,10.0,SE,15.0,-,N/A,,Mostly Cloudy,140,2012-12-15 00:55:00
7:15 PM,42.8,30.2,61,29.80,10.0,SE,15.0,-,N/A,,Overcast,140,2012-12-15 01:15:00
7:35 PM,44.6,30.2,57,29.79,10.0,SE,13.8,-,N/A,,Overcast,140,2012-12-15 01:35:00
7:55 PM,44.6,30.2,57,29.79,10.0,SSE,16.1,-,N/A,,Overcast,150,2012-12-15 01:55:00
8:35 PM,44.6,30.2,57,29.78,10.0,SSE,16.1,-,N/A,,Overcast,150,2012-12-15 02:35:00
8:55 PM,44.6,30.2,57,29.77,10.0,SSE,16.1,-,N/A,,Overcast,150,2012-12-15 02:55:00
9:15 PM,44.6,32.0,61,29.76,10.0,SSE,15.0,-,N/A,,Overcast,150,2012-12-15 03:15:00
9:35 PM,44.6,32.0,61,29.75,10.0,SSE,17.3,-,N/A,,Overcast,150,2012-12-15 03:35:00
9:55 PM,44.6,32.0,61,29.74,10.0,SSE,16.1,-,N/A,,Overcast,150,2012-12-15 03:55:00
10:15 PM,44.6,32.0,61,29.73,10.0,SSE,19.6,26.5,N/A,,Overcast,150,2012-12-15 04:15:00
10:35 PM,44.6,32.0,61,29.73,10.0,SSE,15.0,21.9,N/A,,Overcast,150,2012-12-15 04:35:00
10:55 PM,44.6,32.0,61,29.71,10.0,SSE,16.1,23.0,N/A,,Overcast,150,2012-12-15 04:55:00
11:15 PM,44.6,32.0,61,29.70,10.0,SSE,15.0,-,N/A,,Overcast,150,2012-12-15 05:15:00
11:35 PM,44.6,32.0,61,29.69,10.0,SE,12.7,-,N/A,,Overcast,140,2012-12-15 05:35:00
11:55 PM,44.6,32.0,61,29.68,10.0,SE,13.8,-,N/A,,Overcast,140,2012-12-15 05:55:00